LA4GY-1 Weather Reports


time (UTC)temp
C
wind
direction
speed
KPH
gust
KPH
rain 1hr
cm
rain 24hr
cm
rain mn
cm
humidity
%
barometer
mb
20260506200005 3 163 0.0 0.0 0.03 0.79 0.43 90 1011.8
20260506195004 3 163 0.0 0.0 0.03 0.79 0.43 91 1011.8
20260506194005 3 163 0.0 0.0 0.00 0.76 0.41 91 1011.6
20260506193004 3 163 0.0 0.0 0.00 0.76 0.41 91 1011.6
20260506192005 3 163 0.0 0.0 0.00 0.76 0.41 91 1011.5
20260506191005 3 163 0.0 0.0 0.00 0.76 0.41 91 1011.5
20260506190005 3 163 0.0 0.0 0.00 0.76 0.41 91 1011.4
20260506185004 3 163 0.0 0.0 0.00 0.76 0.41 91 1011.5
20260506184004 3 163 0.0 0.0 0.00 0.76 0.41 91 1011.4
20260506183005 3 163 0.0 0.0 0.00 0.79 0.41 92 1011.3
20260506182005 3 163 0.0 0.0 0.00 0.79 0.41 92 1011.3
20260506181006 2 163 0.0 0.0 0.03 0.79 0.41 92 1011.3
20260506180006 2 163 0.0 0.0 0.03 0.79 0.41 92 1011.3
20260506174006 2 163 0.0 0.0 0.03 0.79 0.41 91 1011.2
20260506172006 2 208 0.0 0.0 0.03 0.79 0.41 91 1011.0
20260506171006 3 220 0.0 0.0 0.05 0.79 0.38 91 1011.0
20260506170005 3 210 0.0 0.0 0.08 0.79 0.38 91 1011.0
20260506165006 3 213 0.0 0.0 0.08 0.81 0.38 91 1011.0
20260506164005 3 201 0.0 0.0 0.08 0.81 0.38 90 1011.0
20260506163006 3 244 0.0 0.0 0.08 0.81 0.38 89 1010.8
20260506162006 3 244 0.0 0.0 0.08 0.81 0.38 88 1010.6
20260506161005 3 242 0.0 0.0 0.03 0.76 0.33 88 1010.6
20260506160006 3 109 0.0 0.0 0.00 0.74 0.30 87 1010.6
20260506155006 4 109 0.0 0.0 0.00 0.76 0.30 87 1010.5
20260506153006 3 240 0.0 0.0 0.00 0.76 0.30 87 1010.5
20260506152005 4 237 0.0 0.0 0.00 0.76 0.30 87 1010.4
20260506151005 4 248 0.0 0.0 0.00 0.79 0.30 86 1010.3
20260506145006 5 269 0.0 0.0 0.00 0.84 0.30 85 1010.1
20260506144006 5 229 0.0 0.0 0.00 0.84 0.30 86 1010.2
20260506143005 5 229 0.0 0.0 0.00 0.84 0.30 86 1010.1
20260506140006 5 173 0.0 0.0 0.03 0.84 0.30 89 1010.0
20260506135006 5 185 0.0 0.0 0.03 0.84 0.30 90 1009.9
20260506134006 5 202 0.0 0.0 0.05 0.86 0.30 91 1010.0
20260506133005 4 234 0.0 0.0 0.05 0.91 0.30 91 1009.8
20260506132005 4 237 0.0 0.0 0.05 0.91 0.30 91 1009.9
20260506131006 3 237 0.0 0.0 0.05 0.91 0.30 91 1009.8
20260506130006 4 241 0.0 0.0 0.05 0.89 0.28 90 1009.7
20260506125006 4 294 0.0 0.0 0.05 0.89 0.28 89 1009.7
20260506124005 5 193 0.0 0.0 0.03 0.89 0.25 90 1009.7
20260506123005 5 191 0.0 0.0 0.00 0.89 0.23 91 1009.6
20260506122005 4 200 0.0 0.0 0.00 0.89 0.23 90 1009.6
20260506121005 5 207 0.0 0.0 0.03 0.89 0.23 90 1009.6
20260506120005 5 142 0.0 0.0 0.03 0.89 0.23 90 1009.6
20260506115006 5 142 0.0 0.0 0.03 0.89 0.23 91 1009.4
20260506113006 4 136 0.0 0.0 0.05 0.89 0.23 90 1009.3
20260506112005 4 128 0.0 0.0 0.05 0.89 0.23 88 1009.2
20260506111005 5 107 0.0 0.0 0.03 0.89 0.23 88 1009.0
20260506110006 5 117 0.0 0.0 0.03 0.89 0.23 90 1008.7
20260506105006 5 144 0.0 0.0 0.05 0.89 0.23 92 1008.7
20260506103005 4 236 0.0 0.0 0.05 0.86 0.20 90 1008.7
20260506102005 4 236 0.0 0.0 0.08 0.86 0.20 91 1008.6
20260506101005 4 234 0.0 0.0 0.08 0.86 0.20 90 1008.5
20260506095005 4 306 0.0 0.0 0.05 0.84 0.15 89 1008.4
20260506094005 5 132 0.0 0.0 0.03 0.81 0.15 90 1008.4
20260506093005 5 173 0.0 0.0 0.03 0.81 0.15 91 1008.2
20260506092005 4 207 0.0 0.0 0.00 0.79 0.13 91 1008.2
20260506091005 4 205 0.0 0.0 0.00 0.79 0.13 91 1008.2
20260506090006 4 155 0.0 0.0 0.00 0.79 0.13 91 1008.2
20260506085006 4 154 0.0 0.0 0.00 0.79 0.13 91 1008.1
20260506084005 4 154 0.0 0.0 0.00 0.79 0.13 90 1008.0
20260506083005 4 154 0.0 0.0 0.00 0.79 0.13 90 1008.0
20260506082006 4 150 0.0 0.0 0.00 0.79 0.13 91 1007.9
20260506081006 4 181 0.0 0.0 0.00 0.81 0.13 91 1007.8
20260506073005 3 189 0.0 0.0 0.00 0.89 0.13 92 1007.6
20260506072005 3 195 0.0 0.0 0.00 0.94 0.13 91 1007.5
20260506071005 3 195 0.0 0.0 0.00 0.94 0.13 91 1007.4
20260506062005 2 286 0.0 0.0 0.00 0.94 0.13 91 1007.1
20260506051005 2 286 0.0 0.0 0.00 0.94 0.13 89 1006.4
20260506045005 3 286 0.0 0.0 0.00 0.94 0.13 90 1006.0
20260506044005 3 286 0.0 0.0 0.00 0.94 0.13 91 1006.0
20260506043005 2 286 0.0 0.0 0.00 0.94 0.13 90 1005.9
20260506041005 2 286 0.0 0.0 0.00 0.94 0.13 91 1005.8
20260506040005 2 286 0.0 0.0 0.00 0.94 0.13 90 1005.7
20260506035005 2 286 0.0 0.0 0.00 0.94 0.13 90 1005.6
20260506034005 2 286 0.0 0.0 0.00 0.94 0.13 90 1005.4
20260506033005 2 286 0.0 0.0 0.00 0.94 0.13 91 1005.3
20260506031005 2 286 0.0 0.0 0.00 0.94 0.13 91 1005.3
20260506030005 2 286 0.0 0.0 0.00 0.94 0.13 91 1005.2
20260506024005 2 286 0.0 0.0 0.03 0.94 0.13 90 1005.1
20260506022005 2 286 0.0 0.0 0.03 0.94 0.13 90 1004.9
20260506020005 2 286 0.0 0.0 0.03 0.94 0.13 91 1004.7
20260506015005 2 286 0.0 0.0 0.03 0.94 0.13 91 1004.7
20260506014005 2 286 0.0 0.0 0.00 0.91 0.10 92 1004.6
20260506011005 1 286 0.0 0.0 0.00 0.91 0.10 92 1004.3
20260506010005 1 286 0.0 0.0 0.00 0.91 0.10 92 1004.3
20260506005005 1 286 0.0 0.0 0.00 0.91 0.10 91 1004.2
20260506004005 1 286 0.0 0.0 0.00 0.91 0.10 91 1004.1
20260506003005 1 286 0.0 0.0 0.00 0.91 0.10 91 1004.0
20260506002005 1 286 0.0 0.0 0.00 0.91 0.10 91 1003.9
20260506000005 1 286 0.0 0.0 0.00 0.91 0.10 91 1003.9
20260505235005 1 286 0.0 0.0 0.00 0.94 0.10 91 1003.8
20260505234005 1 286 0.0 0.0 0.03 0.94 0.10 90 1003.8
20260505233005 1 286 0.0 0.0 0.03 0.94 0.10 90 1003.7
20260505231004 2 286 0.0 0.0 0.08 0.94 0.10 90 1003.7
20260505224005 2 286 0.0 0.0 0.18 0.91 0.08 91 1003.6
20260505223005 2 286 0.0 0.0 0.23 0.91 0.08 91 1003.5
20260505222005 2 286 0.0 0.0 0.30 0.89 0.05 91 1003.5
20260505221005 2 286 0.0 0.0 0.30 0.86 0.03 91 1003.4
20260505220005 1 286 0.0 0.0 0.30 0.84 0.00 91 1003.4
20260505215005 1 286 0.0 0.0 0.30 0.81 0.81 91 1003.4
20260505214005 1 286 0.0 0.0 0.23 0.74 0.74 92 1003.3
20260505213004 1 286 0.0 0.0 0.23 0.71 0.71 92 1003.3
20260505212005 1 213 0.0 0.0 0.13 0.61 0.61 91 1003.2
20260505210004 1 213 0.0 0.0 0.05 0.53 0.53 91 1003.3
20260505205005 2 213 0.0 0.0 0.05 0.51 0.51 91 1003.2
20260505204005 2 213 0.0 0.0 0.03 0.51 0.51 91 1003.1
20260505203005 2 213 0.0 0.0 0.00 0.48 0.48 92 1003.1
20260505202005 2 213 0.0 0.0 0.00 0.48 0.48 92 1003.1
20260505201005 2 213 0.0 0.0 0.00 0.48 0.48 91 1003.0